DW4118 Weather Reports


Display with metric or nautical units.
time (UTC)temp
F
wind
direction
speed
MPH
gust
MPH
rain 1hr
in
rain 24hr
in
rain mn
in
humidity
%
barometer
mb
20260506043018 56 303 0.0 0.0 0.00 0.01 0.01 87 1013.8
20260506041515 56 303 0.0 0.0 0.00 0.01 0.01 87 1013.7
20260506040016 56 303 0.0 0.0 0.00 0.01 0.01 86 1013.6
20260506034514 56 303 0.0 0.0 0.00 0.01 0.01 87 1013.3
20260506033013 56 303 0.0 0.0 0.00 0.01 0.01 87 1013.1
20260506031516 57 303 0.0 0.0 0.00 0.01 0.01 86 1013.0
20260506030011 57 303 0.0 0.0 0.00 0.01 0.01 85 1012.9
20260506024512 57 303 0.0 0.0 0.00 0.01 0.01 85 1012.8
20260506023011 58 303 0.0 0.0 0.00 0.01 0.01 84 1012.8
20260506021511 58 303 0.0 0.0 0.00 0.01 0.01 82 1012.7
20260506020010 59 303 0.0 0.0 0.00 0.01 0.01 80 1012.8
20260506014511 59 303 0.0 0.0 0.00 0.01 0.01 80 1012.6
20260506013012 59 303 0.0 0.0 0.00 0.01 0.01 79 1012.6
20260506011509 60 303 0.0 0.0 0.00 0.01 0.01 79 1012.5
20260506010010 60 297 0.0 2.0 0.00 0.01 0.01 78 1012.5
20260506004508 60 310 0.0 2.0 0.00 0.01 0.01 77 1012.6
20260506003008 60 271 0.0 2.0 0.00 0.01 0.01 77 1012.6
20260506001507 60 3 0.0 0.0 0.00 0.01 0.01 78 1012.6
20260506000005 60 304 0.0 3.0 0.00 0.01 0.01 77 1012.7
20260505234506 61 335 0.0 2.0 0.00 0.01 0.01 75 1012.8
20260505233009 62 267 0.0 3.0 0.00 0.01 0.01 74 1012.8
20260505231509 62 321 0.0 3.0 0.00 0.01 0.01 72 1012.7
20260505230005 61 311 1.0 4.0 0.00 0.01 0.01 72 1012.7
20260505224503 62 300 0.0 2.0 0.00 0.01 0.01 72 1012.8
20260505223006 62 102 0.0 1.0 0.00 0.01 0.01 73 1012.9
20260505221503 62 281 1.0 3.0 0.00 0.01 0.01 72 1013.0
20260505220007 62 50 0.0 2.0 0.00 0.01 0.01 72 1012.9
20260505214501 64 147 0.0 4.0 0.00 0.01 0.01 69 1013.1
20260505213101 64 100 0.0 6.0 0.00 0.01 0.01 70 1013.1
20260505211614 65 190 1.0 7.0 0.00 0.01 0.01 69 1013.0
20260505210201 65 73 0.0 3.0 0.00 0.01 0.01 69 1013.2
20260505203012 62 248 0.0 3.0 0.00 0.01 0.01 75 1013.4
20260505174636 54 289 0.0 1.0 0.00 0.01 0.01 91 1013.5
20260505124547 51 57 0.0 0.0 0.00 0.00 0.00 93 1011.9
20260505123040 51 57 0.0 0.0 0.00 0.00 0.00 93 1011.8
20260505121542 51 57 0.0 0.0 0.00 0.00 0.00 93 1011.8
20260505120047 52 82 0.0 0.0 0.00 0.00 0.00 92 1011.8
20260505114536 52 82 0.0 1.0 0.00 0.00 0.00 91 1011.8
20260505113035 52 295 0.0 0.0 0.00 0.00 0.00 91 1011.7
20260505111533 52 295 0.0 0.0 0.00 0.00 0.00 90 1011.6
20260505101527 53 295 0.0 1.0 0.00 0.00 0.00 88 1011.2
20260505100023 53 249 0.0 1.0 0.00 0.00 0.00 88 1011.1
20260505094527 54 297 0.0 1.0 0.00 0.00 0.00 88 1011.1
20260505093018 54 297 0.0 0.0 0.00 0.00 0.00 88 1011.0
20260505091518 55 288 0.0 1.0 0.00 0.00 0.00 87 1010.9
20260505090017 55 330 0.0 1.0 0.00 0.00 0.00 86 1010.8
20260505084517 55 330 0.0 0.0 0.00 0.00 0.00 86 1010.6
20260505083010 56 330 0.0 1.0 0.00 0.00 0.00 86 1010.6
20260505081508 56 292 0.0 1.0 0.00 0.00 0.00 85 1010.5
20260505080005 57 300 0.0 3.0 0.00 0.00 0.00 83 1010.3
20260505074502 58 243 0.0 0.0 0.00 0.00 0.00 82 1010.3
20260505073104 58 243 0.0 1.0 0.00 0.00 0.00 81 1010.2
20260505071556 58 34 0.0 1.0 0.00 0.00 0.00 81 1009.9
20260505070057 59 15 0.0 3.0 0.00 0.00 0.00 81 1009.8
20260505064553 59 30 0.0 1.0 0.00 0.00 0.00 82 1009.7
20260505063111 60 30 0.0 1.0 0.00 0.00 0.00 82 1009.7
20260505061555 60 91 0.0 1.0 0.00 0.00 0.00 82 1009.6
20260505060055 60 32 0.0 0.0 0.00 0.00 0.00 83 1009.5
20260505054556 61 32 0.0 0.0 0.00 0.00 0.00 83 1009.3
20260505053056 61 32 0.0 0.0 0.00 0.00 0.00 83 1009.2
20260505051547 61 42 0.0 1.0 0.00 0.00 0.00 83 1009.2